Regional Weather Roundup
Issued by NWS Albany, NY

Home | Current Version | Previous Version | Graphics & Text | Print | Product List | Glossary Off
Versions: 1 2 3 4 5 6 7 8 9 10 11 12 13 14 15 16 17 18 19 20 21 22 23 24 25 26 27 28 29 30 31 32 33 34 35 36 37 38 39 40 41 42 43 44 45 46 47 48 49 50

000
ASUS41 KALY 242110
RWRALY

NEW YORK STATE HOURLY WEATHER ROUNDUP
NATIONAL WEATHER SERVICE ALBANY NY
400 PM EST WED DEC 24 2014

NOTE: "FAIR" INDICATES FEW OR NO CLOUDS BELOW 12,000 FEET WITH NO
SIGNIFICANT WEATHER AND/OR NO OBSTRUCTIONS TO VISIBILITY.

NYZ032-033-038>043-046>054-057>066-NYZ062>081-242200-
EAST


CITY           SKY/WX    TMP DP  RH WIND       PRES   REMARKS
ALBANY         LGT RAIN  46  43  89 S8        29.71F FOG
GLENS FALLS    LGT RAIN  39  38  96 CALM      29.72F VSB 1/2
POUGHKEEPSIE   LGT RAIN  47  44  90 N6        29.71F FOG
NEWBURGH       DRIZZLE   46  46 100 CALM      29.72F FOG
MONTGOMERY     LGT RAIN  46  45  96 N8        29.70F
WHITE PLAINS   DRZL/FOG  48  47  96 S5        29.70F VSB 1/4
ISLIP          LGT RAIN  58  57  97 S12       29.72S VSB 1/4
NEW YORK CITY  FOG       45  43  93 NE12      29.71F VSB 1/2
CENTRAL PARK   LGT RAIN  47  46  97 NE7       29.72F FOG
$$

NYZ005>009-017-018-044>046-055-056-242200-
CENTRAL


CITY           SKY/WX    TMP DP  RH WIND       PRES   REMARKS
FULTON         CLOUDY    47  44  90 SE7       29.55F
SYRACUSE       LGT RAIN  42  42 100 E9        29.56F
ROME           HVY RAIN  46  45  96 SE7       29.63F FOG
ELMIRA         CLOUDY    51  49  92 S3        29.57F
BINGHAMTON     LGT RAIN  48  47  96 SE13      29.60F
MONTICELLO     CLOUDY    45  45 100 E10       29.69F VSB 1/4
$$

NYZ026>034-041>043-242200-
NORTH


CITY           SKY/WX    TMP DP  RH WIND       PRES   REMARKS
WATERTOWN      CLOUDY    54  46  74 S9        29.52F
FORT DRUM      NOT AVBL
MASSENA        FOG       38  36  92 NE7       29.61F VSB 1/4 WCI  33
SARANAC LAKE   LGT RAIN  41  40  96 CALM      29.59F VSB 1
PLATTSBURGH    RAIN      41  40  96 SE16      29.66F
$$

NYZ001>004-010>016-019>021-242200-
WEST


CITY           SKY/WX    TMP DP  RH WIND       PRES   REMARKS
NIAGARA FALLS  CLOUDY    54  48  80 SE10      29.38F
BUFFALO        CLOUDY    54  47  77 SE12      29.41F
DUNKIRK        LGT RAIN  54  48  80 SE10G24   29.40F
JAMESTOWN      CLOUDY    50  46  87 S12       29.43F
WELLSVILLE     CLOUDY    49  46  90 S14G22    29.52F
ROCHESTER      CLOUDY    55  48  77 S8        29.48F
PENN YAN       CLOUDY    52  47  83 S5        29.54F
$$

             KEY
       WCI = WIND CHILL INDEX
       VSB = VISIBILITY
       HX  = HEAT INDEX
$$



USA.gov is the U.S. government's official web portal to all federal, state and local government web resources and services.